Weather History for De Queen, AR

Change the Weather History Date:

Friday, April 18, 2014

  Actual Average Record
Temperature  
Mean Temperature 60 °F 62 °F  
Max Temperature 77 °F 75 °F 93 °F (2006)
Min Temperature 43 °F 49 °F 34 °F (1999)
Degree Days  
Heating Degree Days 5 4  
Month to date heating degree days 152 117  
Since 1 July heating degree days 3385 2985  
Cooling Degree Days 0 1  
Month to date cooling degree days 17 18  
Year to date cooling degree days 18 29  
Growing Degree Days 9 (Base 50)    
Moisture  
Dew Point 46 °F    
Average Humidity 66    
Maximum Humidity 100    
Minimum Humidity 31    
Precipitation  
Precipitation 0.00 in 0.13 in 2.10 in (1977)
Month to date precipitation 3.08 2.07  
Year to date precipitation 8.17 13.71  
Snow  
Snow 0.00 in - - ()
Month to date snowfall 0.0  
Since 1 July snowfall 1.2  
Snow Depth 0.00 in    
Sea Level Pressure  
Sea Level Pressure 30.18 in    
Wind  
Wind Speed 2 mph (East)    
Max Wind Speed 12 mph    
Max Gust Speed 16 mph    
Visibility 4 miles    
Events Fog    
T = Trace of Precipitation, MM = Missing Value Source: NWS Daily Summary

Daily Weather History Graph

Daily Weather History Graph

Search for Another Location

Airport:

Trip Planner

Search our weather history database for the weather conditions in past years. The results will help you decide how hot, cold, wet, or windy it might be!

Date:

Astronomy

Apr. 18, 2014 Rise Set
Actual Time 6:42 AM CDT 7:51 PM CDT
Civil Twilight 6:17 AM CDT 8:17 PM CDT
Nautical Twilight 5:46 AM CDT 8:48 PM CDT
Astronomical Twilight 5:14 AM CDT 9:20 PM CDT
Moon 11:31 PM CDT (4/18) 9:11 AM CDT (4/18)
Length of Visible Light 14h 00m
Length of Day
13h 08m
Waning Gibbous, 87% of the Moon is Illuminated
Apr 18
Waning Gibbous
Apr 22
Last Quarter
Apr 29
New
May 6
First Quarter
May 14
Full

Hourly Weather History & Observations

Time (CDT) Temp. Windchill Dew Point Humidity Pressure Visibility Wind Dir Wind Speed Gust Speed Precip Events Conditions
12:53 AM 52.0 °F - 50.0 °F 93% 30.18 in 6.0 mi Calm Calm - N/A   Clear
1:47 AM 50.0 °F - 48.2 °F 94% 30.19 in 1.8 mi Calm Calm - N/A   Clear
1:53 AM 50.0 °F - 48.9 °F 96% 30.18 in 0.5 mi Calm Calm - N/A Fog Fog
2:01 AM 48.9 °F - 48.0 °F 97% 30.19 in 2.0 mi Calm Calm - N/A   Clear
2:14 AM 48.0 °F - 46.9 °F 96% 30.19 in 0.8 mi Calm Calm - N/A   Clear
2:36 AM 48.0 °F - 48.0 °F 100% 30.19 in 0.2 mi Calm Calm - N/A Fog Fog
2:49 AM 48.2 °F - 46.4 °F 93% 30.19 in 0.5 mi East 3.5 mph - N/A Fog Fog
2:53 AM 46.9 °F - 46.9 °F 100% 30.18 in 1.0 mi East 3.5 mph - N/A   Clear
2:57 AM 46.9 °F - 46.9 °F 100% 30.19 in 3.0 mi East 3.5 mph - N/A   Clear
3:09 AM 46.9 °F - 46.9 °F 100% 30.19 in 1.8 mi East 3.5 mph - N/A   Clear
3:19 AM 48.0 °F - 46.9 °F 96% 30.19 in 0.8 mi Calm Calm - N/A   Clear
3:51 AM 46.4 °F - 46.4 °F 100% 30.19 in 0.2 mi Calm Calm - N/A Fog Fog
3:53 AM 46.0 °F - 46.0 °F 100% 30.18 in 0.2 mi Calm Calm - N/A Fog Fog
4:16 AM 46.0 °F 44.8 °F 46.0 °F 100% 30.19 in 0.8 mi East 3.5 mph - N/A   Clear
4:25 AM 46.0 °F - 45.0 °F 96% 30.19 in 2.0 mi Calm Calm - N/A   Clear
4:34 AM 46.0 °F 44.8 °F 45.0 °F 96% 30.18 in 4.0 mi East 3.5 mph - N/A   Clear
4:46 AM 45.0 °F - 45.0 °F 100% 30.19 in 1.5 mi Calm Calm - N/A   Clear
4:53 AM 45.0 °F - 45.0 °F 100% 30.18 in 0.5 mi Calm Calm - N/A Fog Fog
5:23 AM 44.1 °F - 44.1 °F 100% 30.19 in 0.2 mi Calm Calm - N/A Fog Fog
5:50 AM 44.6 °F - 44.6 °F 100% 30.19 in 0.5 mi Calm Calm - N/A Fog Fog
5:53 AM 44.1 °F - 44.1 °F 100% 30.19 in 0.5 mi Calm Calm - N/A Fog Fog
6:01 AM 44.1 °F - 44.1 °F 100% 30.19 in 0.2 mi Calm Calm - N/A Fog Fog
6:11 AM 44.1 °F - 44.1 °F 100% 30.20 in 1.0 mi Calm Calm - N/A   Clear
6:20 AM 44.1 °F - 43.0 °F 96% 30.20 in 0.2 mi Calm Calm - N/A Fog Fog
6:27 AM 43.0 °F - 43.0 °F 100% 30.20 in 0.2 mi Calm Calm - N/A Fog Fog
6:53 AM 43.0 °F - 43.0 °F 100% 30.21 in 0.2 mi Calm Calm - N/A Fog Fog
7:15 AM 44.1 °F - 44.1 °F 100% 30.22 in 1.0 mi Calm Calm - N/A   Clear
7:32 AM 45.0 °F - 45.0 °F 100% 30.23 in 3.0 mi Calm Calm - N/A   Clear
7:53 AM 46.9 °F - 46.9 °F 100% 30.22 in 3.0 mi Calm Calm - N/A   Clear
8:53 AM 55.0 °F - 50.0 °F 83% 30.23 in 9.0 mi Calm Calm - N/A   Clear
9:53 AM 63.0 °F - 51.1 °F 65% 30.24 in 10.0 mi Calm Calm - N/A   Clear
10:53 AM 66.0 °F - 48.9 °F 54% 30.23 in 10.0 mi Calm Calm - N/A   Clear
11:53 AM 70.0 °F - 44.1 °F 39% 30.21 in 10.0 mi Calm Calm - N/A   Clear
12:53 PM 72.0 °F - 45.0 °F 38% 30.18 in 10.0 mi Variable 4.6 mph - N/A   Clear
1:53 PM 73.9 °F - 45.0 °F 35% 30.16 in 10.0 mi North 3.5 mph - N/A   Partly Cloudy
2:53 PM 75.0 °F - 45.0 °F 34% 30.14 in 10.0 mi NE 6.9 mph - N/A   Scattered Clouds
3:53 PM 73.9 °F - 43.0 °F 33% 30.12 in 8.0 mi NE 4.6 mph - N/A   Mostly Cloudy
4:53 PM 75.0 °F - 42.1 °F 31% 30.10 in 9.0 mi East 4.6 mph - N/A   Partly Cloudy
5:53 PM 73.9 °F - 44.1 °F 34% 30.09 in 10.0 mi SSE 6.9 mph - N/A   Clear
6:53 PM 72.0 °F - 46.0 °F 40% 30.09 in 10.0 mi ESE 9.2 mph 16.1 mph N/A   Clear
7:53 PM 66.9 °F - 48.0 °F 51% 30.11 in 10.0 mi ESE 6.9 mph - N/A   Clear
8:53 PM 64.0 °F - 48.9 °F 58% 30.13 in 10.0 mi ESE 4.6 mph - N/A   Clear
10:53 PM 53.1 °F - 50.0 °F 89% 30.17 in 10.0 mi Calm Calm - N/A   Clear
11:53 PM 51.1 °F - 48.9 °F 92% 30.16 in 10.0 mi Calm Calm - N/A   Clear